Regional Weather Roundup
Issued by NWS

Home | Current Version | Previous Version | Graphics & Text | Print | Product List | Glossary On
Versions: 1 2 3 4 5 6 7 8 9 10 11 12 13 14 15 16 17 18 19 20 21 22 23 24 25 26 27 28 29 30 31 32 33 34 35 36 37 38 39 40 41 42 43 44 45 46 47 48 49
000
ASUS45 KBOU 251207
RWRCO

WEATHER ROUNDUP FOR COLORADO
NATIONAL WEATHER SERVICE DENVER/BOULDER CO
600 AM MDT TUE APR 25 2017

NOTE: "FAIR" INDICATES FEW OR NO CLOUDS BELOW 12000 FEET WITH NO
SIGNIFICANT WEATHER AND/OR OBSTRUCTIONS TO VISIBILITY.

COZ001>005-013-030-031-251300-
...NORTHWEST COLORADO...

CITY           SKY/WX    TMP DP  RH WIND       PRES   REMARKS
CRAIG          FAIR      31  27  85 CALM      29.71F
HAYDEN         FAIR      32  28  86 S3        29.71S
MEEKER         MOCLDY    33  32  96 CALM      29.69F
MOUNT WERNER   NOT AVBL
STEAMBOAT SPGS FAIR      32  31  96 CALM      29.71F
WALDEN           N/A     27  19  74 SE5       29.69S WCI  21
$$

COZ006>008-011-251300-
...WEST CENTRAL VALLEYS...

CITY           SKY/WX    TMP DP  RH WIND       PRES   REMARKS
GRAND JUNCTION FAIR      43  36  76 NE10      29.65F
MONTROSE       CLOUDY    43  35  73 SE8       29.69F
EAGLE          NOT AVBL
RIFLE          FAIR      36  35  96 E3        29.69F
DELTA          FAIR      45  34  66 CALM      29.68S
NUCLA          CLOUDY    45  28  53 S3        29.71S
$$

COZ017>023-064>068-251300-
...SOUTHWEST COLORADO...

CITY           SKY/WX    TMP DP  RH WIND       PRES   REMARKS
DURANGO        CLOUDY    45  27  49 W8        29.64S
CORTEZ         CLOUDY    47  28  47 NW5       29.69R
PAGOSA SPRINGS CLOUDY    44  29  56 CALM      29.68S
TELLURIDE      LGT SNOW  32  31  98 CALM      29.75F
WOLF CREEK PAS LGT SNOW  25  23  93 S14       29.82F WCI  13
$$

COZ009-010-012-014-032>034-037-058>063-251300-
...CENTRAL COLORADO...

CITY           SKY/WX    TMP DP  RH WIND       PRES   REMARKS
ASPEN          FAIR      28  27  96 CALM      29.69F
BUENA VISTA    FAIR      32  27  81 NW9       29.66F WCI  24
COPPER MTN     FLURRIES  23  18  80 MISG      29.73F
BERTHOUD PASS  CLOUDY    14   3  62 MISG      29.67F
COTTONWOOD PAS FAIR      32  19  59 W16G29    29.69F WCI  21
GUNNISON       LGT RAIN  33  30  88 SW5       29.72F WCI  29
KREMMLING      MOCLDY    34  32  93 NW3       29.71F
LEADVILLE      FAIR      22  17  81 NE5       29.70F WCI  16
MONARCH PASS   CLOUDY    21  19  93 MISG      29.83F
SALIDA         FAIR      35  33  92 CALM      29.73F
SUNLIGHT       CLOUDY    21  19  93 W5        29.76F WCI  15
WILKERSON PASS FAIR      21  16  79 W8G20     29.71F WCI  12
$$

COZ069>075-251300-
...SAN LUIS VALLEY/SANGRE DE CRISTO MOUNTAINS...

CITY           SKY/WX    TMP DP  RH WIND       PRES   REMARKS
ALAMOSA        FAIR      41  28  60 N12       29.66F
LA VETA PASS   CLOUDY    36  23  60 S30G45    29.79F
SAGUACHE       FAIR      36  28  75 NW10      29.68F
$$

COZ035-036-038>040-251300-
...NORTHERN COLORADO FRONT RANGE...

CITY           SKY/WX    TMP DP  RH WIND       PRES   REMARKS
DENVER INTL AP FAIR      39  36  89 SW10      29.55F
DMNS CITY PARK   N/A     43  35  73 W5        29.57S
AURORA         PTCLDY    38  38  99 W9        29.56F
FRONT RANGE AP FAIR      37  36  93 S9        29.56F
ERIE MUNI ARPT FAIR      39  38  95 SW7       29.55F
BOULDER MUN AP FAIR      41  37  87 CALM      29.55F
CENTENNIAL     FAIR      40  34  79 W9        29.57F
BROOMFIELD     FAIR      41  30  65 W16       29.58S
FORT COLLINS   FAIR      41  38  89 NE5       29.56S
LONGMONT       FAIR      41  37  84 SW3       29.56F
$$

COZ041-046-047-076>085-087-088-251300-
...PIKES PEAK/PALMER DIVIDE AND SOUTHERN FOOTHILLS...

CITY           SKY/WX    TMP DP  RH WIND       PRES   REMARKS
COLO. SPRINGS  FAIR      48  21  34 N14       29.56F
A. F. ACADEMY  FAIR      44  20  38 N6G21     29.56F
SCHRIEVER AFB  FAIR      45  24  44 NW15      29.57S
ELLICOTT       FAIR     N/A N/A N/A NE12      29.56F
FALCON         FAIR      43  22  44 NW18G24   29.58F
FORT CARSON    FAIR      44  28  53 S7        29.55R
LIMON          FAIR      37  36  96 N12       29.56S
MONUMENT HILL  FAIR      32  30  93 W7        29.61S WCI  26
TRINIDAD       FAIR      47  35  63 N22G30    29.57R
$$

COZ042>045-048>051-090-091-251300-
...NORTHEAST COLORADO...

CITY           SKY/WX    TMP DP  RH WIND       PRES   REMARKS
GREELEY ARPT   FAIR      41  41 100 CALM      29.57R FOG
AKRON          LGT RAIN  42  39  89 E7        29.54F
BURLINGTON     NOT AVBL
WRAY           NOT AVBL
STERLING       CLOUDY    43  43 100 E5        29.53F
HOLYOKE        LGT RAIN  46  43  87 NW6       29.60R
FORT MORGAN    FAIR      39  38  93 S7        29.57R
$$

COZ086-089-092>099-251300-
...SOUTHEAST COLORADO...

CITY           SKY/WX    TMP DP  RH WIND       PRES   REMARKS
PUEBLO         FAIR      48  38  68 CALM      29.56R
LA JUNTA       FAIR      49  42  77 N22G29    29.54R
LAMAR          FAIR      48  41  76 N20G29    29.49R
SPRINGFIELD      N/A     49  32  52 NW10      29.46R
$$



USA.gov is the U.S. government's official web portal to all federal, state and local government web resources and services.